GW5610 Weather Reports


Display with metric or nautical units.
time (UTC)temp
F
wind
direction
speed
MPH
gust
MPH
rain 1hr
in
rain 24hr
in
rain mn
in
humidity
%
barometer
mb
20260508023542 52 337 3.0 5.0 0.00 0.09 0.05 53 1010.8
20260508023036 52 335 3.0 7.0 0.00 0.09 0.05 53 1010.7
20260508023013 52 335 3.0 7.0 0.00 0.11 0.05 53 1010.7
20260508022024 52 334 3.0 5.0 0.00 0.11 0.05 54 1010.7
20260508021518 52 333 3.0 7.0 0.00 0.11 0.05 52 1010.6
20260508021011 53 331 3.0 7.0 0.00 0.11 0.05 53 1010.5
20260508020727 53 329 5.0 14.0 0.00 0.11 0.05 53 1010.5
20260508020219 53 332 7.0 14.0 0.00 0.11 0.05 51 1010.3
20260508015941 53 333 9.0 16.0 0.00 0.11 0.05 51 1010.3
20260508014947 53 316 9.0 16.0 0.00 0.11 0.05 50 1010.2
20260508014442 53 312 9.0 19.0 0.00 0.11 0.05 51 1010.2
20260508013936 53 318 9.0 19.0 0.00 0.11 0.05 51 1010.0
20260508013430 53 328 8.0 14.0 0.00 0.11 0.05 53 1009.9
20260508013147 53 317 8.0 14.0 0.00 0.11 0.05 53 1009.8
20260508012418 54 318 7.0 13.0 0.00 0.11 0.05 55 1009.8
20260508011912 54 321 7.0 13.0 0.00 0.11 0.05 55 1009.6
20260508011625 54 337 7.0 13.0 0.00 0.11 0.05 54 1009.6
20260508010900 54 349 7.0 13.0 0.00 0.11 0.05 54 1009.5
20260508010614 55 337 7.0 14.0 0.00 0.11 0.05 54 1009.5
20260508010114 55 333 6.0 14.0 0.00 0.11 0.05 55 1009.4
20260508005341 55 343 6.0 12.0 0.00 0.11 0.05 56 1009.2
20260508004836 55 337 7.0 15.0 0.00 0.11 0.05 55 1009.2
20260508004550 56 45 7.0 15.0 0.00 0.11 0.05 54 1008.9
20260508003824 56 344 7.0 12.0 0.00 0.11 0.05 54 1008.9
20260508003318 56 328 7.0 12.0 0.00 0.11 0.05 54 1008.9
20260508002815 56 243 7.0 17.0 0.00 0.11 0.05 54 1008.9
20260508002535 56 335 7.0 17.0 0.00 0.11 0.05 55 1008.8
20260508001815 56 312 5.0 12.0 0.00 0.11 0.05 57 1008.7
20260508001313 56 331 6.0 11.0 0.00 0.11 0.05 60 1008.7
20260508000812 56 331 7.0 12.0 0.00 0.11 0.05 59 1008.7
20260508000312 56 325 5.0 12.0 0.00 0.11 0.05 62 1008.6
20260507235813 56 267 6.0 11.0 0.00 0.11 0.05 68 1008.5
20260507235313 56 317 6.0 11.0 0.00 0.11 0.05 69 1008.4
20260507235301 56 318 5.0 8.0 0.00 0.11 0.05 78 1008.2
20260507234313 57 0 4.0 8.0 0.00 0.11 0.05 83 1008.2
20260507234033 57 45 4.0 9.0 0.00 0.11 0.05 83 1008.2
20260507233313 57 45 5.0 10.0 0.00 0.11 0.05 83 1008.2
20260507232814 57 45 7.0 11.0 0.00 0.11 0.05 83 1008.0
20260507232311 57 270 8.0 13.0 0.00 0.11 0.05 83 1008.0
20260507231812 57 269 8.0 13.0 0.00 0.11 0.05 82 1007.8
20260507231312 57 279 8.0 13.0 0.00 0.11 0.05 82 1007.8
20260507230805 57 273 9.0 14.0 0.00 0.11 0.05 82 1007.7
20260507230305 58 255 10.0 14.0 0.00 0.11 0.05 82 1007.7
20260507225804 57 249 10.0 14.0 0.00 0.11 0.05 81 1007.6
20260507225306 58 264 11.0 16.0 0.00 0.11 0.05 82 1007.7
20260507225255 58 258 11.0 16.0 0.00 0.11 0.05 81 1007.6
20260507224305 58 252 10.0 15.0 0.00 0.11 0.05 81 1007.5
20260507223805 58 264 10.0 16.0 0.00 0.11 0.05 82 1007.5
20260507223305 58 272 10.0 16.0 0.00 0.11 0.05 82 1007.4
20260507223022 58 272 11.0 17.0 0.00 0.11 0.05 80 1007.2
20260507222306 58 257 11.0 17.0 0.00 0.11 0.05 80 1007.2
20260507221805 59 250 11.0 17.0 0.00 0.11 0.05 80 1007.1
20260507221303 59 233 10.0 19.0 0.00 0.11 0.05 81 1007.0
20260507220803 59 228 10.0 19.0 0.00 0.11 0.05 78 1007.0
20260507220525 59 269 9.0 14.0 0.00 0.11 0.05 82 1006.9
20260507215802 58 266 7.0 14.0 0.00 0.11 0.05 83 1006.9
20260507215306 57 234 6.0 15.0 0.00 0.11 0.05 82 1006.9
20260507214803 57 251 7.0 15.0 0.00 0.11 0.05 82 1006.8
20260507214303 57 219 8.0 16.0 0.00 0.11 0.05 82 1006.8
20260507213802 57 240 9.0 16.0 0.00 0.11 0.05 81 1006.8
20260507213302 57 249 10.0 15.0 0.00 0.11 0.05 81 1006.9
20260507212802 58 223 9.0 14.0 0.00 0.11 0.05 81 1006.9
20260507212306 57 226 7.0 11.0 0.00 0.11 0.05 82 1006.9
20260507211802 57 218 8.0 15.0 0.00 0.11 0.05 81 1006.8
20260507211302 57 214 9.0 15.0 0.00 0.11 0.05 80 1006.8
20260507210803 58 270 8.0 15.0 0.00 0.11 0.05 80 1006.8
20260507210522 57 45 9.0 13.0 0.00 0.11 0.05 81 1006.8
20260507205802 57 200 8.0 13.0 0.00 0.11 0.05 81 1006.8
20260507205522 58 223 7.0 13.0 0.00 0.11 0.05 82 1006.9
20260507204802 58 269 7.0 13.0 0.00 0.11 0.05 81 1006.8
20260507204302 57 252 8.0 13.0 0.00 0.11 0.05 82 1006.8
20260507203802 57 240 8.0 13.0 0.00 0.11 0.05 80 1006.9
20260507203302 58 254 9.0 16.0 0.00 0.11 0.05 81 1007.0
20260507202803 58 266 11.0 17.0 0.00 0.11 0.05 80 1006.9
20260507202523 58 255 11.0 17.0 0.00 0.11 0.05 82 1007.0
20260507201802 58 256 11.0 20.0 0.00 0.11 0.05 82 1007.0
20260507201520 57 204 11.0 20.0 0.00 0.11 0.05 81 1007.1
20260507200750 56 252 11.0 17.0 0.00 0.11 0.05 83 1007.0
20260507200244 56 230 10.0 17.0 0.00 0.11 0.05 83 1007.2
20260507195737 55 212 10.0 15.0 0.00 0.11 0.05 83 1007.4
20260507195231 56 258 10.0 16.0 0.00 0.11 0.05 82 1007.5
20260507194725 56 216 9.0 16.0 0.00 0.11 0.05 82 1007.5
20260507194220 58 262 9.0 15.0 0.00 0.11 0.05 83 1007.5
20260507193714 57 266 9.0 15.0 0.00 0.11 0.05 83 1007.6
20260507193207 56 256 9.0 13.0 0.00 0.11 0.05 85 1007.7
20260507192702 55 247 9.0 14.0 0.00 0.11 0.05 84 1007.9
20260507192156 55 255 9.0 14.0 0.00 0.11 0.05 84 1007.9
20260507191650 55 250 9.0 14.0 0.00 0.11 0.05 85 1007.9
20260507191143 54 256 9.0 14.0 0.00 0.11 0.05 84 1007.9
20260507190637 55 266 9.0 16.0 0.00 0.11 0.05 85 1008.1
20260507190357 55 245 8.0 16.0 0.00 0.11 0.05 85 1008.1
20260507185856 56 264 7.0 12.0 0.00 0.11 0.05 85 1008.0
20260507185120 54 233 7.0 11.0 0.00 0.11 0.05 85 1008.2
20260507184614 54 258 5.0 11.0 0.00 0.11 0.05 86 1008.4
20260507184107 54 264 4.0 8.0 0.00 0.11 0.05 85 1008.2
20260507184045 53 193 3.0 9.0 0.00 0.11 0.05 85 1008.2
20260507183321 53 185 3.0 9.0 0.00 0.11 0.05 86 1008.3
20260507182550 52 168 4.0 8.0 0.00 0.11 0.05 85 1008.2
20260507182044 52 166 3.0 8.0 0.00 0.11 0.05 86 1008.3
20260507181537 52 164 3.0 6.0 0.00 0.11 0.05 85 1008.4
20260507181031 52 164 2.0 6.0 0.00 0.11 0.05 86 1008.5
20260507180745 52 163 2.0 8.0 0.00 0.11 0.05 86 1008.5
20260507180020 52 163 2.0 8.0 0.00 0.11 0.05 86 1008.4
20260507175513 52 159 3.0 7.0 0.00 0.11 0.05 86 1008.6
20260507175234 52 156 2.0 7.0 0.00 0.11 0.05 85 1008.5
20260507174502 52 64 1.0 4.0 0.00 0.11 0.05 86 1008.5
20260507173956 52 61 1.0 3.0 0.00 0.11 0.05 86 1008.5
20260507173450 52 60 1.0 3.0 0.00 0.11 0.05 86 1008.6
20260507172944 52 60 1.0 3.0 0.00 0.11 0.05 86 1008.8
20260507172437 52 58 1.0 3.0 0.00 0.11 0.05 85 1008.8
20260507171931 52 58 0.0 2.0 0.00 0.11 0.05 86 1008.8
20260507171431 52 58 0.0 3.0 0.00 0.11 0.05 86 1009.0
20260507171153 52 57 1.0 4.0 0.00 0.11 0.05 86 1008.9
20260507170428 52 56 1.0 4.0 0.00 0.11 0.05 86 1009.0
20260507165928 52 54 1.0 3.0 0.01 0.11 0.05 86 1009.0
20260507165427 52 50 1.0 2.0 0.01 0.11 0.05 86 1009.3
20260507164928 51 50 1.0 3.0 0.01 0.11 0.05 86 1009.2
20260507164428 51 50 1.0 3.0 0.01 0.11 0.05 86 1009.7
20260507163927 51 50 1.0 4.0 0.01 0.11 0.05 86 1009.7
20260507163427 51 50 2.0 5.0 0.01 0.11 0.05 86 1009.4
20260507163153 51 45 2.0 6.0 0.01 0.11 0.05 86 1009.6
20260507162424 50 50 2.0 6.0 0.01 0.11 0.05 86 1009.6
20260507161924 50 45 2.0 4.0 0.01 0.11 0.05 86 1009.7
20260507161648 50 40 2.0 4.0 0.01 0.11 0.05 86 1009.7
20260507160922 51 40 1.0 3.0 0.01 0.11 0.05 85 1009.9
20260507160645 51 40 1.0 6.0 0.01 0.11 0.05 85 1009.9
20260507155922 50 40 2.0 6.0 0.00 0.10 0.04 85 1010.1
20260507155422 50 104 3.0 5.0 0.00 0.10 0.04 85 1009.8
20260507154919 50 97 3.0 5.0 0.00 0.10 0.04 86 1009.6
20260507154642 50 79 3.0 8.0 0.00 0.10 0.04 85 1009.9
20260507153920 50 78 3.0 8.0 0.01 0.10 0.04 85 1010.0
20260507153421 49 90 3.0 5.0 0.01 0.10 0.04 86 1010.0
20260507152921 49 89 3.0 9.0 0.01 0.10 0.04 85 1010.0
20260507152640 49 87 2.0 9.0 0.02 0.10 0.04 85 1010.1
20260507151919 49 77 2.0 9.0 0.02 0.10 0.04 85 1010.2
20260507151419 49 89 3.0 6.0 0.03 0.10 0.04 85 1010.1
20260507150919 49 141 2.0 5.0 0.03 0.10 0.04 85 1010.1
20260507150643 49 98 2.0 5.0 0.03 0.10 0.04 85 1010.3
20260507145920 49 98 3.0 5.0 0.03 0.10 0.04 86 1010.2
20260507145653 49 98 3.0 5.0 0.03 0.10 0.04 86 1009.9
20260507144920 49 86 2.0 5.0 0.03 0.10 0.04 86 1009.9
20260507144418 49 83 2.0 4.0 0.03 0.10 0.04 86 1010.1
20260507144135 50 83 2.0 5.0 0.02 0.09 0.04 86 1010.3
20260507143416 50 83 2.0 6.0 0.02 0.09 0.03 86 1010.2
20260507142916 50 87 3.0 6.0 0.02 0.09 0.03 86 1009.8
20260507142416 50 84 2.0 10.0 0.01 0.08 0.02 86 1009.9
20260507142140 51 77 2.0 10.0 0.01 0.08 0.02 86 1010.1
20260507141415 51 86 2.0 6.0 0.00 0.07 0.01 85 1010.2
20260507140915 51 85 3.0 9.0 0.00 0.07 0.01 86 1010.2
20260507140416 51 83 2.0 9.0 0.00 0.07 0.01 86 1010.2
20260507135910 51 87 2.0 6.0 0.00 0.07 0.01 86 1010.4
20260507135404 51 84 2.0 6.0 0.00 0.07 0.01 85 1010.4
20260507135120 51 72 2.0 6.0 0.00 0.08 0.01 85 1010.4
20260507134352 51 81 2.0 9.0 0.00 0.08 0.01 85 1010.4
20260507134104 51 79 3.0 6.0 0.00 0.09 0.01 85 1010.6
20260507133340 51 83 3.0 6.0 0.00 0.09 0.01 86 1010.3
20260507132834 51 78 2.0 7.0 0.00 0.09 0.01 86 1010.5
20260507132327 51 55 2.0 7.0 0.00 0.09 0.01 86 1010.4
20260507131821 51 79 2.0 6.0 0.00 0.10 0.01 86 1010.4
20260507131315 51 82 2.0 9.0 0.00 0.10 0.01 86 1010.4
20260507130810 51 82 2.0 9.0 0.00 0.10 0.01 86 1010.4
20260507130304 51 81 2.0 6.0 0.00 0.11 0.01 86 1010.5
20260507125758 51 78 2.0 5.0 0.00 0.11 0.01 86 1010.4
20260507125252 51 91 2.0 5.0 0.00 0.11 0.01 86 1010.5
20260507124746 51 91 2.0 5.0 0.00 0.11 0.01 86 1010.3
20260507124240 51 91 2.0 8.0 0.00 0.11 0.01 86 1010.2
20260507123734 51 91 3.0 9.0 0.00 0.11 0.01 86 1010.3
20260507123228 51 79 2.0 8.0 0.00 0.11 0.01 86 1010.4
20260507122722 52 73 3.0 7.0 0.00 0.11 0.01 86 1010.3
20260507122216 52 90 3.0 10.0 0.00 0.11 0.01 86 1010.4
20260507121710 52 87 3.0 10.0 0.00 0.11 0.01 86 1010.2
20260507121204 51 83 2.0 9.0 0.00 0.12 0.01 86 1010.2
20260507120658 52 83 3.0 10.0 0.00 0.13 0.01 86 1010.4
20260507120414 52 79 3.0 10.0 0.00 0.13 0.01 86 1010.4
20260507115905 52 86 2.0 8.0 0.00 0.13 0.01 86 1010.2
20260507115140 52 87 2.0 8.0 0.00 0.13 0.01 86 1010.2
20260507115122 52 85 2.0 8.0 0.00 0.13 0.01 86 1010.0
20260507114128 52 89 2.0 8.0 0.00 0.14 0.01 86 1010.1
20260507113622 52 102 2.0 8.0 0.00 0.14 0.01 86 1010.1
20260507113116 52 82 3.0 11.0 0.00 0.14 0.01 86 1010.2
20260507112610 52 77 4.0 11.0 0.00 0.14 0.01 86 1010.1
20260507112104 52 105 4.0 11.0 0.00 0.14 0.01 85 1010.1
20260507111603 52 86 3.0 10.0 0.00 0.14 0.01 85 1010.0
20260507111102 52 87 3.0 9.0 0.00 0.14 0.01 85 1009.9
20260507110807 52 85 2.0 5.0 0.00 0.14 0.01 85 1009.9
20260507110653 52 81 2.0 9.0 0.00 0.14 0.01 85 1010.1
20260507105601 52 89 2.0 10.0 0.00 0.14 0.01 85 1009.9
20260507105101 52 86 2.0 10.0 0.00 0.14 0.01 85 1009.7
20260507104559 52 81 3.0 5.0 0.00 0.14 0.01 85 1009.4
20260507104057 52 87 3.0 5.0 0.00 0.14 0.01 85 1009.5
20260507103557 53 89 3.0 5.0 0.00 0.14 0.01 85 1009.4
20260507103056 53 87 3.0 5.0 0.00 0.14 0.01 85 1009.4
20260507102558 53 87 3.0 5.0 0.00 0.14 0.01 85 1009.3
20260507102542 54 86 3.0 5.0 0.00 0.14 0.01 85 1009.2
20260507101554 54 82 1.0 4.0 0.00 0.14 0.01 85 1009.3
20260507101312 55 79 1.0 3.0 0.00 0.14 0.01 85 1009.3
20260507100552 55 79 1.0 3.0 0.00 0.14 0.01 85 1009.2
20260507100052 55 79 1.0 4.0 0.00 0.14 0.01 85 1009.4
20260507095550 56 79 2.0 4.0 0.00 0.14 0.01 85 1009.3
20260507095048 56 66 1.0 3.0 0.00 0.14 0.01 85 1009.3
20260507094548 56 66 1.0 5.0 0.00 0.14 0.01 85 1009.4
20260507094049 56 66 3.0 8.0 0.00 0.14 0.01 85 1009.3
20260507093549 56 61 4.0 9.0 0.00 0.14 0.01 85 1009.4
20260507093048 56 60 4.0 9.0 0.00 0.14 0.01 85 1009.4
20260507092548 56 336 3.0 7.0 0.00 0.14 0.01 85 1009.4
20260507092049 56 333 3.0 7.0 0.00 0.14 0.01 85 1009.3
20260507091548 56 331 2.0 4.0 0.00 0.14 0.01 85 1008.9
20260507091048 56 331 2.0 4.0 0.00 0.14 0.01 85 1008.9
20260507091034 56 331 3.0 7.0 0.00 0.14 0.01 85 1009.3
20260507090108 57 331 3.0 6.0 0.00 0.14 0.01 85 1009.4
20260507090048 57 331 2.0 7.0 0.00 0.14 0.01 85 1009.4
20260507085747 57 331 4.0 8.0 0.00 0.14 0.01 85 1009.5
20260507084548 57 331 5.0 8.0 0.00 0.14 0.01 85 1009.6
20260507084048 57 334 3.0 7.0 0.00 0.14 0.01 85 1009.6
20260507083817 57 335 2.0 4.0 0.00 0.14 0.01 85 1009.5
20260507083308 57 334 2.0 3.0 0.00 0.14 0.01 84 1009.3
20260507082549 57 334 1.0 3.0 0.00 0.14 0.01 84 1009.0
20260507082049 58 334 2.0 5.0 0.00 0.14 0.01 84 1008.7
20260507081543 58 334 3.0 8.0 0.00 0.14 0.01 84 1008.8
20260507081043 58 334 3.0 8.0 0.00 0.14 0.01 84 1009.0
20260507080541 58 335 4.0 9.0 0.00 0.14 0.01 84 1009.0
20260507080040 58 335 5.0 9.0 0.00 0.14 0.01 84 1009.2
20260507075540 58 340 5.0 9.0 0.00 0.14 0.01 84 1009.2
20260507075040 58 314 4.0 9.0 0.00 0.14 0.01 84 1009.0
20260507074806 58 309 5.0 11.0 0.00 0.14 0.01 84 1009.0
20260507074308 58 309 7.0 14.0 0.00 0.14 0.01 84 1009.2
20260507073540 58 316 7.0 14.0 0.00 0.14 0.01 84 1008.9
20260507073040 58 324 6.0 12.0 0.00 0.14 0.01 84 1008.8
20260507072538 58 45 7.0 13.0 0.00 0.14 0.01 84 1009.2
20260507072241 58 313 8.0 15.0 0.00 0.14 0.01 84 1009.2
20260507072128 58 45 8.0 15.0 0.00 0.14 0.01 84 1008.9
20260507071038 59 316 9.0 14.0 0.00 0.14 0.01 85 1009.2
20260507070800 59 312 9.0 14.0 0.00 0.14 0.01 84 1009.2
20260507070038 59 262 6.0 11.0 0.00 0.14 0.01 85 1008.9
20260507065537 58 267 4.0 11.0 0.00 0.14 0.01 85 1008.6
20260507065031 59 277 4.0 6.0 0.00 0.14 0.01 85 1008.6
20260507064526 59 277 4.0 6.0 0.00 0.14 0.01 85 1008.8
20260507064020 59 45 5.0 12.0 0.00 0.14 0.01 85 1008.8
20260507063513 59 45 7.0 12.0 0.00 0.14 0.01 85 1009.0
20260507063007 59 272 9.0 14.0 0.00 0.14 0.01 85 1008.6
20260507062502 59 270 10.0 16.0 0.00 0.14 0.01 85 1008.7
20260507061956 59 45 10.0 16.0 0.00 0.14 0.01 85 1008.6
20260507061450 59 309 11.0 19.0 0.01 0.14 0.01 85 1008.8
20260507060944 59 45 12.0 19.0 0.01 0.14 0.01 85 1009.0
20260507060438 59 274 11.0 18.0 0.01 0.14 0.01 85 1009.3
20260507055931 59 45 14.0 23.0 0.01 0.14 0.01 85 1009.2
20260507055644 59 45 15.0 23.0 0.01 0.14 0.01 85 1009.5
20260507054920 59 45 13.0 22.0 0.01 0.14 0.01 85 1009.3
20260507054414 59 309 13.0 20.0 0.01 0.14 0.01 85 1009.5
20260507053908 59 45 14.0 21.0 0.01 0.14 0.01 85 1009.5
20260507053401 59 316 15.0 29.0 0.01 0.14 0.01 84 1009.3
20260507052855 59 45 15.0 29.0 0.01 0.14 0.01 82 1009.3
20260507052349 60 45 13.0 23.0 0.01 0.14 0.01 82 1009.3
20260507051844 60 312 10.0 23.0 0.01 0.14 0.01 81 1009.3
20260507051338 61 333 7.0 12.0 0.00 0.13 0.00 80 1009.3
20260507050831 61 333 7.0 11.0 0.00 0.13 0.00 80 1009.2
20260507050548 61 338 7.0 11.0 0.00 0.13 0.00 80 1009.0
20260507045820 61 325 6.0 11.0 0.00 0.13 0.00 80 1008.9
20260507045314 61 331 6.0 10.0 0.00 0.13 0.00 80 1008.6
20260507045028 61 316 5.0 9.0 0.00 0.13 0.00 80 1008.4
20260507044302 61 274 5.0 7.0 0.00 0.13 0.00 80 1008.3
20260507043756 61 271 4.0 8.0 0.01 0.13 0.00 81 1007.9
20260507043249 61 274 4.0 7.0 0.01 0.13 0.00 81 1008.0
20260507042743 61 45 3.0 6.0 0.01 0.13 0.00 81 1008.2
20260507042238 61 45 4.0 11.0 0.01 0.13 0.00 81 1008.5
20260507042000 61 45 7.0 11.0 0.01 0.13 0.00 81 1009.0
20260507041225 62 312 7.0 12.0 0.02 0.13 0.00 81 1009.0
20260507040726 62 45 6.0 12.0 0.02 0.13 0.00 81 1009.4
20260507040226 62 312 5.0 11.0 0.02 0.13 0.00 81 1009.4
20260507035725 62 45 7.0 11.0 0.03 0.13 0.13 81 1009.0
20260507035225 62 45 7.0 11.0 0.03 0.13 0.13 82 1009.3
20260507034725 62 260 5.0 7.0 0.03 0.13 0.13 82 1009.3
20260507034225 62 258 5.0 7.0 0.03 0.13 0.13 82 1009.3
20260507033726 62 254 6.0 8.0 0.02 0.12 0.12 82 1009.3
20260507033225 62 245 7.0 11.0 0.03 0.12 0.12 82 1009.4
20260507032725 62 217 7.0 14.0 0.05 0.12 0.12 82 1009.4
20260507032224 62 212 6.0 14.0 0.05 0.12 0.12 82 1009.5
20260507031718 62 249 7.0 10.0 0.05 0.12 0.12 82 1009.5
20260507031215 62 250 6.0 10.0 0.04 0.11 0.11 82 1009.9
20260507030937 62 320 5.0 9.0 0.04 0.11 0.11 83 1009.9
20260507030653 63 328 6.0 9.0 0.04 0.11 0.11 83 1009.7
20260507025716 63 330 6.0 9.0 0.03 0.10 0.10 83 1009.7
20260507025213 63 45 6.0 12.0 0.03 0.10 0.10 84 1009.6
20260507024713 63 312 8.0 13.0 0.03 0.10 0.10 84 1009.3
20260507024213 63 339 9.0 15.0 0.03 0.10 0.10 84 1009.5
20260507023713 64 269 10.0 17.0 0.03 0.10 0.10 84 1009.2